Theta_e
316 314 314 314 315 316 316 317 319 319 319 319 319 319 318 318 319 319 319 318 317 318 318 318 318 320 317 317 316 315 313 311 307 309 313 315 315 314 314 315 315 314 313
312 309 309 308 309 310 311 311 312 312 313 313 313 313 313 314 315 314 314 315 315 315 315 316 316 315 316 316 314 313 311 311 309 307 310 310 311 313 313 312 312 313 313
307 306 305 304 305 306 306 307 308 309 309 309 309 309 309 310 310 310 311 311 312 313 314 314 314 314 313 313 312 311 309 309 308 308 307 309 309 311 310 310 310 312 312
304 303 303 303 302 303 304 305 306 306 306 306 307 307 308 307 307 308 309 311 312 313 313 314 313 313 312 312 310 310 309 307 305 303 303 305 307 310 310 306 305 310 310
303 302 301 302 303 303 303 304 305 305 305 305 306 306 306 306 306 306 307 308 309 310 311 311 312 312 311 310 309 309 310 308 307 304 303 304 305 307 307 308 304 305 309
301 300 300 301 300 301 302 302 304 304 304 304 305 305 305 305 300 299 302 306 308 309 308 309 311 310 310 307 307 307 307 307 307 306 305 304 306 308 308 306 303 302 301
300 300 300 300 300 300 300 301 302 302 303 304 305 305 305 306 299 298 299 305 307 308 309 309 309 309 309 310 308 306 306 305 305 306 304 307 306 306 306 304 303 303 302
297 297 297 298 298 299 300 300 301 302 302 303 301 302 303 304 299 297 298 306 308 308 308 309 309 309 310 309 308 308 309 310 312 308 305 305 306 307 307 305 305 304 305
295 295 295 296 297 298 299 299 301 301 300 298 299 301 301 303 299 297 298 304 306 306 308 309 308 308 304 299 300 300 301 302 305 304 303 302 300 299 302 306 302 301 300
294 294 295 296 297 297 299 299 299 299 298 298 300 304 302 303 299 296 297 300 301 303 307 309 304 303 298 296 299 299 298 300 302 303 305 304 301 302 301 302 303 300 300
296 296 297 298 298 298 298 299 299 299 300 300 301 303 300 299 299 295 294 296 297 297 298 301 303 299 296 295 295 298 297 300 300 300 301 302 303 305 304 303 303 303 301
295 296 295 296 296 297 297 297 296 296 295 296 296 297 298 297 296 295 293 293 294 296 299 301 304 297 295 295 297 295 294 297 304 304 299 299 300 302 304 304 304 304 305
295 296 295 296 296 296 295 294 293 293 293 292 292 290 292 295 296 294 293 293 297 301 305 302 297 296 296 297 296 295 297 302 302 303 305 302 302 303 305 305 304 304 305
292 293 295 295 293 294 295 293 292 290 289 289 288 288 289 293 292 293 295 300 300 303 301 303 300 296 295 296 297 298 301 302 312 309 306 306 307 304 304 305 302 302 302
292 291 292 291 293 291 291 291 290 291 290 287 288 288 289 289 290 290 291 298 295 296 299 300 297 293 292 293 294 295 298 299 301 310 309 308 307 305 305 306 304 303 302
291 290 290 289 289 289 289 290 291 290 290 289 289 288 290 290 289 290 290 291 291 291 299 294 292 291 290 289 290 292 295 296 298 304 313 311 311 305 306 306 305 304 307
289 290 289 288 288 288 290 290 287 289 290 289 288 288 288 289 289 289 289 290 291 293 294 291 289 289 288 288 289 290 290 293 298 303 313 312 315 313 306 309 310 309 306
291 289 290 290 289 289 289 289 287 286 285 286 287 287 287 288 288 288 288 290 291 293 293 289 288 288 287 286 287 288 289 292 295 301 311 313 313 312 310 311 310 307 306
291 291 290 289 289 289 288 287 286 285 284 284 284 285 286 287 287 287 287 288 288 289 291 289 288 287 286 285 286 287 289 290 292 297 301 310 312 312 307 307 302 296 299
290 286 287 289 289 287 287 285 285 284 283 282 282 282 283 285 285 283 285 285 287 287 288 290 289 287 286 285 285 286 287 289 290 294 298 309 309 307 305 304 302 300 300
289 288 286 288 287 286 285 284 283 283 283 282 282 283 282 282 283 282 282 283 284 285 287 288 289 288 287 285 285 284 285 287 288 291 296 309 308 306 306 304 303 301 301
288 288 287 286 286 285 285 285 284 282 282 282 284 285 283 285 284 282 281 282 283 284 285 285 288 289 288 287 285 284 283 284 286 288 294 302 309 310 310 309 307 305 303
287 287 286 286 286 284 284 283 283 283 283 282 282 283 283 283 283 284 283 282 283 283 285 284 286 287 288 288 288 286 284 283 285 288 294 299 304 310 311 309 308 304 301
286 286 285 285 284 284 284 283 283 282 283 283 284 284 284 283 283 283 285 285 285 283 284 283 284 283 285 286 287 287 285 285 288 287 295 298 300 302 309 310 310 310 308
285 285 284 284 284 284 283 283 283 283 283 283 283 283 284 285 285 285 285 285 286 286 284 284 284 285 283 282 283 285 283 283 287 286 296 296 297 298 301 306 308 309 310
284 284 283 283 283 283 283 283 282 283 282 283 283 283 284 284 285 285 285 285 285 285 286 286 286 284 284 282 282 282 283 283 285 285 295 295 293 295 296 299 302 306 307
Wind_Speed
17 15 13 9 11 10 8 7 7 7 7 6 6 5 5 4 5 5 6 7 9 10 9 10 12 11 9 9 9 10 11 12 14 11 13 14 16 16 16 16 16 15 14
15 16 13 12 10 7 8 7 6 6 6 6 6 6 6 6 6 7 8 9 11 12 12 12 11 8 11 11 10 13 13 13 13 18 15 14 15 15 16 17 15 14 14
12 19 13 8 5 6 6 7 7 8 7 7 6 6 7 7 7 8 10 12 12 12 12 13 12 12 13 12 13 12 11 10 12 14 15 12 13 14 14 12 15 16 12
14 16 9 5 5 5 5 5 6 6 7 7 7 7 8 8 9 9 9 10 11 11 10 11 13 15 16 15 14 16 14 13 12 11 11 12 12 13 10 10 11 12 12
13 12 8 6 6 7 7 7 7 7 7 8 9 9 9 9 6 9 10 11 12 12 13 14 14 15 19 18 14 16 15 14 13 12 12 11 13 12 12 11 9 9 11
12 10 8 7 7 8 8 8 8 8 8 7 8 9 10 7 9 12 11 11 13 13 14 14 15 18 18 20 21 24 22 18 17 14 13 14 18 14 11 9 8 9 9
10 9 9 8 9 9 9 8 8 8 8 8 8 9 10 10 7 11 13 12 13 14 15 14 16 13 15 17 19 19 22 25 27 21 18 19 18 16 12 10 9 10 10
8 9 9 9 9 9 8 8 9 8 9 8 9 10 10 9 7 11 13 13 12 15 15 16 16 18 18 17 19 20 19 19 20 14 19 21 19 17 13 10 9 10 9
9 8 8 8 8 8 9 9 8 9 9 9 9 10 10 11 8 11 13 13 13 15 14 15 15 17 22 20 15 17 18 18 19 26 27 27 24 19 13 5 7 7 6
8 8 7 7 7 8 9 9 9 8 8 8 9 8 10 11 11 11 12 9 12 11 14 15 14 15 20 19 16 15 16 17 16 17 15 14 17 18 23 16 11 9 6
8 8 7 8 8 8 8 7 9 9 8 9 9 9 10 10 12 13 14 10 9 11 11 12 10 16 19 22 22 13 13 17 20 14 11 9 8 9 8 9 11 10 9
6 6 8 7 6 7 8 7 7 8 8 9 10 9 8 11 12 14 19 17 16 9 11 10 12 21 23 22 17 19 22 20 9 7 7 6 6 5 4 6 8 9 8
7 9 8 8 8 7 7 8 6 8 8 9 9 9 10 10 11 18 19 18 15 9 9 13 17 17 19 16 21 20 18 10 9 8 5 4 4 2 3 4 6 7 8
8 9 9 9 9 9 7 7 7 8 7 8 8 8 9 11 10 12 11 11 15 12 15 11 13 14 12 14 15 15 12 12 8 5 4 4 3 2 3 4 4 5 5
9 9 9 8 10 9 8 7 7 8 8 7 8 8 9 10 12 15 11 12 13 13 12 10 13 14 14 15 14 13 12 12 12 6 6 5 5 4 4 4 5 6 4
10 8 8 8 8 7 7 7 7 11 10 12 14 12 8 13 20 21 20 16 19 19 10 12 13 12 13 13 14 14 12 15 12 11 5 4 4 2 4 3 4 2 7
9 9 6 8 6 6 8 8 8 7 11 11 17 17 20 17 22 22 21 17 14 14 14 12 12 12 13 12 12 12 13 12 14 11 4 3 5 6 4 2 8 5 6
8 10 6 5 7 7 8 8 8 8 8 9 13 15 19 19 20 22 23 13 11 15 13 12 12 12 12 13 13 13 13 13 13 12 10 9 7 6 5 6 6 5 3
7 7 6 6 6 8 7 8 8 7 7 7 9 13 18 19 17 20 21 13 13 13 14 12 12 13 12 12 12 12 13 12 12 12 11 9 8 8 6 6 8 9 8
7 12 9 6 6 7 8 8 8 8 7 8 9 11 11 12 13 13 13 12 12 13 13 13 12 13 13 13 13 13 13 14 15 13 12 9 9 8 8 8 8 8 7
6 7 8 7 8 7 7 8 8 8 8 7 7 11 14 9 11 11 11 11 11 12 14 14 13 14 13 13 14 14 13 13 13 14 13 11 10 9 8 8 7 8 6
6 6 7 8 7 8 8 8 8 8 9 9 9 10 15 11 11 10 10 10 10 11 11 12 13 13 14 14 14 14 15 15 14 13 13 13 10 10 9 8 8 8 9
7 8 7 7 8 8 8 9 9 9 9 9 9 9 10 10 11 11 10 9 9 10 11 11 12 14 15 14 15 14 14 15 14 13 14 12 11 10 10 11 12 11 10
8 9 8 8 8 8 8 8 8 9 10 10 10 10 10 9 10 12 11 10 9 9 10 10 12 16 17 16 15 15 14 16 13 13 16 13 12 12 9 10 11 12 11
9 8 9 8 8 8 8 8 9 9 9 9 9 9 10 10 10 11 11 11 11 11 11 10 10 16 19 21 22 25 23 23 20 18 10 14 15 17 13 9 10 10 12
9 8 8 8 8 8 8 8 8 8 9 9 9 9 10 10 10 11 11 12 12 12 14 11 15 18 20 16 21 23 23 24 22 22 13 12 13 12 11 13 17 10 11
Wind_Direction
92 84 71 58 62 59 48 38 29 40 35 32 28 24 27 14 359 333 325 308 295 296 291 284 283 280 272 277 278 279 281 285 286 286 284 283 287 287 287 289 289 290 286
97 93 69 47 42 46 47 31 22 31 27 15 9 1 353 343 335 326 308 295 287 287 287 285 275 270 274 276 276 282 280 276 280 287 289 288 281 284 284 288 286 289 291
89 80 72 63 52 42 27 10 3 5 359 353 348 340 335 333 324 312 298 292 289 286 284 279 275 276 278 280 282 282 284 279 276 276 285 291 284 283 285 277 282 284 282
68 85 86 61 33 20 8 355 349 347 345 347 343 338 334 327 315 301 301 295 290 285 287 281 279 275 278 281 281 280 274 274 273 267 268 270 275 280 274 270 269 276 288
76 65 56 33 19 2 2 358 352 351 352 348 339 335 329 317 309 328 313 299 292 291 285 282 280 281 280 274 275 277 278 273 275 275 268 271 266 265 258 260 250 266 279
56 53 39 16 9 3 358 355 354 350 348 340 337 328 326 318 344 315 312 304 296 289 290 290 285 278 269 261 260 262 266 274 272 265 265 261 266 267 264 260 253 257 273
44 35 25 11 2 360 354 352 349 341 334 331 327 326 324 320 329 308 306 301 295 288 287 290 289 289 292 288 283 273 264 254 248 264 265 259 264 260 261 251 230 238 255
40 28 17 4 354 354 349 350 341 331 330 326 333 323 321 320 319 313 311 300 294 294 293 291 291 297 292 290 286 286 283 279 272 255 243 252 254 258 249 239 238 240 252
29 21 12 1 351 349 352 344 336 334 338 330 326 323 319 317 325 315 326 316 308 303 298 295 298 296 291 290 292 286 284 278 275 267 258 258 256 252 242 233 209 223 236
23 21 7 0 354 354 352 345 343 340 330 325 322 320 322 326 343 340 332 318 300 303 304 302 293 280 287 293 293 293 289 285 287 285 279 261 248 247 242 226 226 223 212
20 17 9 12 358 359 347 355 350 346 341 339 334 344 338 344 337 332 325 328 320 314 308 312 312 309 308 307 303 295 280 292 291 279 273 273 266 255 230 207 208 208 206
10 21 20 9 358 3 3 2 3 358 353 350 346 341 351 345 337 334 336 334 322 308 312 313 317 316 313 314 313 316 307 306 292 279 268 268 256 257 244 195 192 200 209
28 32 24 16 17 13 16 16 13 9 4 358 355 350 347 346 345 344 340 330 325 332 337 323 313 331 332 331 329 321 321 320 304 304 303 286 274 262 250 166 175 186 192
38 30 23 25 15 20 24 20 20 16 10 7 359 351 350 352 349 345 342 343 355 357 339 345 355 341 328 335 347 343 340 340 351 358 354 359 6 113 141 126 138 153 150
46 30 26 22 23 20 26 25 24 38 28 13 1 354 351 355 349 341 350 9 357 343 334 357 5 3 357 352 346 343 343 345 349 12 19 24 49 60 104 123 134 144 147
39 30 21 22 12 18 15 19 37 30 29 26 12 16 359 1 359 5 4 352 358 339 16 14 9 1 356 348 344 342 345 345 339 330 25 348 39 112 124 142 132 212 146
37 30 25 25 7 11 21 23 11 7 23 30 16 14 11 6 11 13 7 356 2 357 29 16 4 359 351 349 345 343 334 335 331 344 336 15 23 66 182 75 101 83 82
38 38 35 21 25 23 26 21 26 15 7 5 11 9 9 8 14 18 16 7 16 23 25 11 0 357 350 346 347 344 341 347 350 350 1 18 37 43 50 91 105 95 63
32 36 40 29 31 30 33 29 29 21 16 13 5 13 7 9 17 25 25 26 21 14 11 10 1 357 352 350 347 350 347 347 350 354 356 10 29 46 52 59 65 61 78
59 41 40 46 42 40 33 35 30 31 24 24 20 12 359 6 20 18 20 18 14 18 5 6 3 360 356 352 350 353 352 356 356 356 355 2 22 27 41 50 55 61 45
50 54 37 49 45 39 48 40 32 28 30 27 28 19 13 19 22 17 15 15 11 6 9 358 7 3 1 359 355 355 359 356 355 351 352 0 23 30 27 39 49 58 61
51 49 48 47 42 41 38 42 45 37 30 26 21 33 16 28 30 18 14 11 5 1 1 4 1 7 8 3 360 358 356 354 351 352 349 354 10 23 28 36 43 42 48
51 53 52 52 53 39 46 43 37 31 36 32 30 25 25 23 17 19 17 10 3 1 2 3 2 6 7 9 8 6 359 353 340 340 343 350 358 3 36 46 50 50 47
52 52 50 54 43 44 39 40 37 39 28 27 26 25 22 23 19 14 9 12 12 10 4 6 359 15 5 7 7 7 2 352 347 340 351 355 1 360 12 32 50 53 59
49 49 47 44 43 42 40 39 36 34 31 28 25 20 22 17 17 16 12 9 8 10 13 7 6 7 11 7 6 5 358 357 355 341 1 7 9 11 12 15 20 27 34
53 49 50 42 41 37 38 36 35 31 28 26 25 22 20 17 14 13 12 10 7 9 10 8 7 6 14 6 2 359 359 360 354 345 358 17 13 11 7 12 12 21 23